DW9727 Weather Reports


Display with metric or nautical units.
time (UTC)temp
F
wind
direction
speed
MPH
gust
MPH
rain 1hr
in
rain 24hr
in
rain mn
in
humidity
%
barometer
mb
20260506041711 47 19 1.0 3.0 0.00 0.01 0.01 44 1015.7
20260506040710 47 336 1.0 2.0 0.00 0.01 0.01 46 1015.8
20260506035710 47 11 1.0 3.0 0.00 0.01 0.01 43 1015.6
20260506034711 47 6 2.0 3.0 0.00 0.01 0.01 42 1015.6
20260506033710 48 5 1.0 3.0 0.00 0.01 0.01 43 1015.7
20260506031711 48 12 2.0 3.0 0.00 0.01 0.01 43 1015.2
20260506030710 48 30 2.0 3.0 0.00 0.01 0.01 42 1015.2
20260506025711 48 0 2.0 7.0 0.00 0.01 0.01 41 1015.1
20260506024711 48 13 2.0 5.0 0.00 0.01 0.01 42 1014.9
20260506023710 49 15 2.0 3.0 0.00 0.01 0.01 41 1014.8
20260506022710 49 334 3.0 5.0 0.00 0.01 0.01 40 1014.6
20260506021710 49 5 2.0 9.0 0.00 0.01 0.01 41 1014.3
20260506020710 50 354 3.0 10.0 0.00 0.01 0.01 40 1014.1
20260506015710 50 5 3.0 8.0 0.00 0.01 0.01 40 1014.0
20260506014710 51 11 2.0 5.0 0.00 0.01 0.01 39 1013.9
20260506013710 51 15 3.0 7.0 0.00 0.01 0.01 38 1013.6
20260506012710 51 22 4.0 10.0 0.00 0.01 0.01 37 1013.6
20260506011710 52 18 2.0 9.0 0.00 0.01 0.01 35 1013.6
20260506005710 53 331 7.0 15.0 0.00 0.01 0.01 34 1013.2
20260506004711 53 9 6.0 12.0 0.00 0.01 0.01 35 1013.1
20260506003710 53 348 6.0 10.0 0.00 0.01 0.01 35 1012.9
20260506002710 53 3 7.0 12.0 0.00 0.01 0.01 35 1012.8
20260506001710 53 349 6.0 14.0 0.00 0.01 0.01 36 1012.9
20260506000710 54 0 9.0 16.0 0.00 0.01 0.01 36 1012.9
20260505233710 54 334 10.0 17.0 0.00 0.01 0.01 36 1012.7
20260505232710 55 332 9.0 20.0 0.00 0.01 0.01 35 1012.6
20260505231711 55 325 10.0 17.0 0.00 0.01 0.01 38 1012.5
20260505230710 55 305 8.0 24.0 0.00 0.01 0.01 37 1012.5
20260505225710 55 304 8.0 18.0 0.00 0.01 0.01 37 1012.5
20260505223710 56 336 11.0 18.0 0.00 0.01 0.01 37 1012.5
20260505222711 56 17 9.0 21.0 0.00 0.01 0.01 38 1012.5
20260505220710 58 313 10.0 22.0 0.00 0.01 0.01 36 1012.4
20260505215710 58 298 13.0 20.0 0.00 0.01 0.01 38 1012.4
20260505214710 58 325 16.0 23.0 0.00 0.01 0.01 36 1012.2
20260505212710 58 335 14.0 24.0 0.00 0.01 0.01 37 1012.4
20260505211710 59 23 10.0 20.0 0.00 0.01 0.01 35 1012.3
20260505210710 60 327 12.0 18.0 0.00 0.01 0.01 39 1012.5
20260505205710 60 34 13.0 21.0 0.00 0.01 0.01 36 1012.4
20260505203710 60 286 13.0 17.0 0.00 0.01 0.01 40 1012.5
20260505200710 58 9 9.0 16.0 0.00 0.01 0.01 40 1012.9
20260505195710 58 315 4.0 17.0 0.00 0.01 0.01 40 1013.0
20260505194711 60 315 10.0 18.0 0.00 0.01 0.01 44 1013.1
20260505192710 60 264 10.0 16.0 0.00 0.01 0.01 44 1013.3
20260505191711 59 35 7.0 12.0 0.00 0.01 0.01 47 1013.3
20260505190711 59 327 7.0 16.0 0.00 0.01 0.01 42 1013.4
20260505185711 59 317 7.0 14.0 0.00 0.01 0.01 45 1013.3
20260505184711 57 325 7.0 13.0 0.00 0.01 0.01 44 1013.3
20260505182710 56 324 9.0 13.0 0.00 0.01 0.01 45 1013.5
20260505175710 56 309 6.0 14.0 0.00 0.01 0.01 51 1013.7
20260505174710 56 13 5.0 12.0 0.00 0.01 0.01 45 1013.8
20260505173710 55 308 4.0 12.0 0.00 0.01 0.01 49 1013.9
20260505172710 55 306 8.0 15.0 0.00 0.01 0.01 48 1014.2
20260505171711 55 288 5.0 12.0 0.00 0.01 0.01 45 1014.1
20260505170710 53 336 3.0 8.0 0.00 0.01 0.01 48 1014.0
20260505165710 54 298 5.0 9.0 0.00 0.01 0.01 56 1014.0
20260505163710 51 336 5.0 9.0 0.00 0.01 0.01 54 1014.0
20260505162710 52 336 5.0 12.0 0.00 0.01 0.01 56 1014.2
20260505161710 52 315 3.0 8.0 0.00 0.01 0.01 53 1014.1
20260505160710 51 297 3.0 6.0 0.00 0.01 0.01 55 1014.1
20260505152710 51 52 3.0 8.0 0.00 0.01 0.01 55 1013.3
20260505151710 51 15 2.0 7.0 0.00 0.01 0.01 60 1013.3
20260505150710 50 322 5.0 9.0 0.00 0.01 0.01 60 1013.3
20260505124711 44 325 2.0 3.0 0.00 0.01 0.01 73 1011.6
20260505122711 44 327 2.0 5.0 0.00 0.01 0.01 73 1011.3
20260505121710 44 323 2.0 3.0 0.00 0.01 0.01 73 1011.1
20260505120710 44 329 2.0 3.0 0.00 0.01 0.01 74 1010.9
20260505115710 44 9 1.0 2.0 0.00 0.01 0.01 72 1010.6
20260505114710 44 13 0.0 2.0 0.00 0.01 0.01 70 1010.4
20260505113711 44 15 1.0 3.0 0.00 0.01 0.01 68 1010.3
20260505112711 44 5 1.0 3.0 0.00 0.01 0.01 68 1010.1
20260505111711 45 17 2.0 3.0 0.00 0.01 0.01 68 1010.3
20260505101710 46 16 2.0 3.0 0.00 0.01 0.01 70 1010.1
20260505100710 46 9 1.0 3.0 0.00 0.01 0.01 68 1010.3
20260505095710 47 9 1.0 5.0 0.00 0.01 0.01 67 1010.2
20260505094710 47 17 3.0 6.0 0.00 0.01 0.01 67 1010.1
20260505093711 47 28 2.0 5.0 0.00 0.01 0.01 68 1010.1
20260505091710 47 30 3.0 8.0 0.00 0.01 0.01 76 1010.1
20260505090711 47 336 2.0 6.0 0.00 0.01 0.01 82 1010.1
20260505085711 47 42 2.0 2.0 0.00 0.01 0.01 82 1009.9
20260505083711 48 42 1.0 2.0 0.00 0.01 0.01 81 1009.6
20260505082710 48 42 1.0 2.0 0.00 0.01 0.01 81 1009.5
20260505080711 48 42 0.0 2.0 0.00 0.01 0.01 80 1009.3
20260505075710 49 42 0.0 1.0 0.00 0.01 0.01 79 1009.4
20260505074710 49 42 0.0 2.0 0.00 0.01 0.01 79 1009.5
20260505072711 49 42 0.0 2.0 0.00 0.01 0.01 79 1009.2
20260505071710 49 42 0.0 1.0 0.00 0.01 0.01 79 1009.0
20260505070711 49 42 0.0 2.0 0.00 0.01 0.01 79 1008.9
20260505065711 49 42 1.0 1.0 0.00 0.01 0.01 78 1008.8
20260505064712 49 42 0.0 0.0 0.00 0.01 0.01 76 1008.8
20260505063711 49 42 0.0 0.0 0.01 0.01 0.01 76 1008.6
20260505062710 49 42 0.0 0.0 0.01 0.01 0.01 76 1008.5
20260505061710 49 42 0.0 2.0 0.01 0.01 0.01 77 1008.3
20260505060710 50 42 0.0 0.0 0.01 0.01 0.01 76 1008.3
20260505054710 50 42 0.0 0.0 0.01 0.01 0.01 73 1008.6
20260505051710 50 35 1.0 3.0 0.00 0.00 0.00 73 1008.6
20260505050711 51 41 0.0 2.0 0.00 0.00 0.00 73 1008.8